Time,TemperatureF,DewpointF,PressureIn,WindDirection,WindDirectionDegrees,WindSpeedMPH,WindSpeedGustMPH,Humidity,HourlyPrecipIn,Conditions,Clouds,dailyrainin,SoftwareType,DateUTC
2013-01-13 00:03:00,43.0,37.0,30.12,North,0,0.0,-999.0,81,-99.99,,,-99.99,,2013-01-13 05:03:00,
2013-01-13 00:12:00,41.0,37.0,30.12,North,0,0.0,-999.0,86,-99.99,,,-99.99,,2013-01-13 05:12:00,
2013-01-13 00:23:00,41.0,37.0,30.12,North,0,0.0,-999.0,86,-99.99,,,-99.99,,2013-01-13 05:23:00,
2013-01-13 00:32:00,41.0,37.0,30.12,North,0,0.0,-999.0,86,-99.99,,,-99.99,,2013-01-13 05:32:00,
2013-01-13 00:42:00,41.0,37.0,30.12,North,0,0.0,-999.0,86,-99.99,,,-99.99,,2013-01-13 05:42:00,
2013-01-13 00:52:00,41.0,37.0,30.12,North,0,0.0,-999.0,86,-99.99,,,-99.99,,2013-01-13 05:52:00,
2013-01-13 01:03:00,41.0,37.0,30.12,North,0,0.0,-999.0,86,-99.99,,,-99.99,,2013-01-13 06:03:00,
2013-01-13 01:12:00,43.0,39.0,30.12,North,0,0.0,-999.0,86,-99.99,,,-99.99,,2013-01-13 06:12:00,
2013-01-13 01:22:00,43.0,39.0,30.12,North,0,0.0,-999.0,86,-99.99,,,-99.99,,2013-01-13 06:22:00,
2013-01-13 01:32:00,43.0,39.0,30.11,North,0,0.0,-999.0,86,-99.99,,,-99.99,,2013-01-13 06:32:00,
2013-01-13 01:42:00,43.0,39.0,30.11,North,0,0.0,-999.0,86,-99.99,,,-99.99,,2013-01-13 06:42:00,
2013-01-13 01:52:00,43.0,39.0,30.10,North,0,0.0,-999.0,86,-99.99,,,-99.99,,2013-01-13 06:52:00,
2013-01-13 02:02:00,43.0,39.0,30.10,North,0,0.0,-999.0,86,-99.99,,,-99.99,,2013-01-13 07:02:00,
2013-01-13 02:12:00,43.0,39.0,30.10,North,0,0.0,-999.0,86,-99.99,,,-99.99,,2013-01-13 07:12:00,
2013-01-13 02:22:00,43.0,39.0,30.10,North,0,0.0,-999.0,86,-99.99,,,-99.99,,2013-01-13 07:22:00,
2013-01-13 02:32:00,43.0,39.0,30.12,North,0,0.0,-999.0,86,-99.99,,,-99.99,,2013-01-13 07:32:00,
2013-01-13 02:42:00,43.0,39.0,30.12,North,0,0.0,-999.0,86,-99.99,,,-99.99,,2013-01-13 07:42:00,
2013-01-13 02:53:00,43.0,39.0,30.11,North,0,0.0,-999.0,86,-99.99,,,-99.99,,2013-01-13 07:53:00,
2013-01-13 03:02:00,43.0,39.0,30.11,North,0,0.0,-999.0,86,-99.99,,,-99.99,,2013-01-13 08:02:00,
2013-01-13 03:12:00,43.0,39.0,30.11,North,0,0.0,-999.0,86,-99.99,,,-99.99,,2013-01-13 08:12:00,
2013-01-13 03:22:00,43.0,39.0,30.11,North,0,0.0,-999.0,86,-99.99,,,-99.99,,2013-01-13 08:22:00,
2013-01-13 03:32:00,43.0,39.0,30.10,North,0,0.0,-999.0,86,-99.99,,,-99.99,,2013-01-13 08:32:00,
2013-01-13 03:42:00,43.0,39.0,30.10,North,0,0.0,-999.0,86,-99.99,,,-99.99,,2013-01-13 08:42:00,
2013-01-13 03:52:00,43.0,39.0,30.10,North,0,0.0,-999.0,86,-99.99,,,-99.99,,2013-01-13 08:52:00,
2013-01-13 04:02:00,43.0,39.0,30.10,North,0,0.0,-999.0,86,-99.99,,,-99.99,,2013-01-13 09:02:00,
2013-01-13 04:12:00,43.0,39.0,30.09,North,0,0.0,-999.0,86,-99.99,,,-99.99,,2013-01-13 09:12:00,
2013-01-13 04:22:00,43.0,39.0,30.09,North,0,0.0,-999.0,86,-99.99,,,-99.99,,2013-01-13 09:22:00,
2013-01-13 04:32:00,43.0,39.0,30.08,North,0,0.0,-999.0,86,-99.99,,,-99.99,,2013-01-13 09:32:00,
2013-01-13 04:42:00,43.0,39.0,30.08,North,0,0.0,-999.0,86,-99.99,,,-99.99,,2013-01-13 09:42:00,
2013-01-13 04:52:00,43.0,39.0,30.09,North,0,0.0,-999.0,86,-99.99,,,-99.99,,2013-01-13 09:52:00,
2013-01-13 05:03:00,43.0,39.0,30.09,North,0,0.0,-999.0,86,-99.99,,,-99.99,,2013-01-13 10:03:00,
2013-01-13 05:12:00,43.0,39.0,30.08,North,0,0.0,-999.0,86,-99.99,,,-99.99,,2013-01-13 10:12:00,
2013-01-13 05:22:00,43.0,39.0,30.08,North,0,0.0,-999.0,86,-99.99,,,-99.99,,2013-01-13 10:22:00,
2013-01-13 05:32:00,43.0,39.0,30.08,North,0,0.0,-999.0,86,-99.99,,,-99.99,,2013-01-13 10:32:00,
2013-01-13 05:42:00,43.0,39.0,30.08,North,0,0.0,-999.0,86,-99.99,,,-99.99,,2013-01-13 10:42:00,
2013-01-13 05:52:00,43.0,41.0,30.08,North,0,0.0,-999.0,93,-99.99,,,-99.99,,2013-01-13 10:52:00,
2013-01-13 06:02:00,43.0,41.0,30.08,North,0,0.0,-999.0,93,-99.99,,,-99.99,,2013-01-13 11:02:00,
2013-01-13 06:12:00,43.0,41.0,30.08,North,0,0.0,-999.0,93,-99.99,,,-99.99,,2013-01-13 11:12:00,
2013-01-13 06:22:00,43.0,41.0,30.08,North,0,0.0,-999.0,93,-99.99,,,-99.99,,2013-01-13 11:22:00,
2013-01-13 06:33:00,43.0,39.0,30.08,North,-99,5.0,-999.0,86,-99.99,,,-99.99,,2013-01-13 11:33:00,
2013-01-13 06:42:00,43.0,39.0,30.08,North,-99,5.0,-999.0,86,-99.99,,,-99.99,,2013-01-13 11:42:00,
2013-01-13 06:52:00,43.0,39.0,30.08,North,-99,5.0,-999.0,86,-99.99,,,-99.99,,2013-01-13 11:52:00,
2013-01-13 07:03:00,43.0,39.0,30.08,North,-99,5.0,-999.0,86,-99.99,,,-99.99,,2013-01-13 12:03:00,
2013-01-13 07:12:00,43.0,41.0,30.08,North,0,0.0,-999.0,93,-99.99,,,-99.99,,2013-01-13 12:12:00,
2013-01-13 07:22:00,43.0,41.0,30.08,North,0,0.0,-999.0,93,-99.99,,,-99.99,,2013-01-13 12:22:00,
2013-01-13 07:33:00,43.0,41.0,30.08,North,0,0.0,-999.0,93,-99.99,,,-99.99,,2013-01-13 12:33:00,
2013-01-13 07:42:00,43.0,41.0,30.08,North,0,0.0,-999.0,93,-99.99,,,-99.99,,2013-01-13 12:42:00,
2013-01-13 07:52:00,43.0,41.0,30.08,North,0,0.0,-999.0,93,-99.99,,,-99.99,,2013-01-13 12:52:00,
2013-01-13 08:03:00,43.0,41.0,30.08,North,0,0.0,-999.0,93,-99.99,,,-99.99,,2013-01-13 13:03:00,
2013-01-13 08:12:00,43.0,41.0,30.09,North,0,0.0,-999.0,93,-99.99,,,-99.99,,2013-01-13 13:12:00,
2013-01-13 08:22:00,43.0,41.0,30.09,North,0,0.0,-999.0,93,-99.99,,,-99.99,,2013-01-13 13:22:00,
2013-01-13 08:33:00,43.0,41.0,30.09,North,0,0.0,-999.0,93,-99.99,,,-99.99,,2013-01-13 13:33:00,
2013-01-13 08:42:00,43.0,41.0,30.09,North,0,0.0,-999.0,93,-99.99,,,-99.99,,2013-01-13 13:42:00,
2013-01-13 08:53:00,45.0,43.0,30.10,North,-99,5.0,-999.0,93,-99.99,,,-99.99,,2013-01-13 13:53:00,
2013-01-13 09:03:00,45.0,43.0,30.10,North,-99,5.0,-999.0,93,-99.99,,,-99.99,,2013-01-13 14:03:00,
2013-01-13 09:12:00,45.0,43.0,30.11,North,0,0.0,-999.0,93,-99.99,,,-99.99,,2013-01-13 14:12:00,
2013-01-13 09:22:00,45.0,43.0,30.11,North,0,0.0,-999.0,93,-99.99,,,-99.99,,2013-01-13 14:22:00,
2013-01-13 09:33:00,45.0,43.0,30.11,North,-99,5.0,-999.0,93,-99.99,,,-99.99,,2013-01-13 14:33:00,
2013-01-13 09:43:00,45.0,43.0,30.11,North,-99,5.0,-999.0,93,-99.99,,,-99.99,,2013-01-13 14:43:00,
2013-01-13 09:52:00,45.0,43.0,30.11,North,0,0.0,-999.0,93,-99.99,,,-99.99,,2013-01-13 14:52:00,
2013-01-13 10:03:00,45.0,43.0,30.11,North,0,0.0,-999.0,93,-99.99,,,-99.99,,2013-01-13 15:03:00,
2013-01-13 10:12:00,45.0,43.0,30.10,North,-99,6.0,-999.0,93,-99.99,,,-99.99,,2013-01-13 15:12:00,
2013-01-13 10:23:00,45.0,43.0,30.10,North,-99,6.0,-999.0,93,-99.99,,,-99.99,,2013-01-13 15:23:00,
2013-01-13 10:33:00,45.0,43.0,30.10,North,-99,6.0,-999.0,93,-99.99,,,-99.99,,2013-01-13 15:33:00,
2013-01-13 10:43:00,45.0,43.0,30.10,North,-99,6.0,-999.0,93,-99.99,,,-99.99,,2013-01-13 15:43:00,
2013-01-13 10:52:00,45.0,43.0,30.13,North,0,0.0,-999.0,93,-99.99,,,-99.99,,2013-01-13 15:52:00,
2013-01-13 11:03:00,45.0,43.0,30.13,North,0,0.0,-999.0,93,-99.99,,,-99.99,,2013-01-13 16:03:00,
2013-01-13 11:12:00,45.0,43.0,30.13,North,0,0.0,-999.0,93,-99.99,,,-99.99,,2013-01-13 16:12:00,
2013-01-13 11:23:00,45.0,43.0,30.13,North,0,0.0,-999.0,93,-99.99,,,-99.99,,2013-01-13 16:23:00,
2013-01-13 11:33:00,45.0,43.0,30.11,North,0,0.0,-999.0,93,-99.99,,,-99.99,,2013-01-13 16:33:00,
2013-01-13 11:43:00,45.0,43.0,30.11,North,0,0.0,-999.0,93,-99.99,,,-99.99,,2013-01-13 16:43:00,
2013-01-13 11:53:00,46.0,43.0,30.09,North,-99,5.0,-999.0,87,-99.99,,,-99.99,,2013-01-13 16:53:00,
2013-01-13 12:03:00,46.0,43.0,30.09,North,-99,5.0,-999.0,87,-99.99,,,-99.99,,2013-01-13 17:03:00,
2013-01-13 12:12:00,46.0,43.0,30.07,North,0,0.0,-999.0,87,-99.99,,,-99.99,,2013-01-13 17:12:00,
2013-01-13 12:22:00,46.0,43.0,30.07,North,0,0.0,-999.0,87,-99.99,,,-99.99,,2013-01-13 17:22:00,
2013-01-13 12:33:00,46.0,43.0,30.07,North,-99,7.0,-999.0,87,-99.99,,,-99.99,,2013-01-13 17:33:00,
2013-01-13 12:43:00,46.0,43.0,30.07,North,-99,7.0,-999.0,87,-99.99,,,-99.99,,2013-01-13 17:43:00,
2013-01-13 12:53:00,46.0,45.0,30.05,North,-99,7.0,-999.0,93,-99.99,,,-99.99,,2013-01-13 17:53:00,
2013-01-13 13:03:00,46.0,45.0,30.05,North,-99,7.0,-999.0,93,-99.99,,,-99.99,,2013-01-13 18:03:00,
2013-01-13 13:12:00,46.0,45.0,30.04,North,-99,5.0,-999.0,93,-99.99,,,-99.99,,2013-01-13 18:12:00,
2013-01-13 13:23:00,46.0,45.0,30.04,North,-99,5.0,-999.0,93,-99.99,,,-99.99,,2013-01-13 18:23:00,
2013-01-13 13:33:00,46.0,45.0,30.05,North,-99,7.0,-999.0,93,-99.99,,,-99.99,,2013-01-13 18:33:00,
2013-01-13 13:43:00,46.0,45.0,30.05,North,-99,7.0,-999.0,93,-99.99,,,-99.99,,2013-01-13 18:43:00,
2013-01-13 13:53:00,46.0,45.0,30.04,North,-99,7.0,-999.0,93,-99.99,,,-99.99,,2013-01-13 18:53:00,
2013-01-13 14:03:00,46.0,45.0,30.04,North,-99,7.0,-999.0,93,-99.99,,,-99.99,,2013-01-13 19:03:00,
2013-01-13 14:12:00,46.0,45.0,30.04,North,-99,6.0,-999.0,93,-99.99,,,-99.99,,2013-01-13 19:12:00,
2013-01-13 14:23:00,46.0,45.0,30.04,North,-99,6.0,-999.0,93,-99.99,,,-99.99,,2013-01-13 19:23:00,
2013-01-13 14:33:00,46.0,45.0,30.04,North,-99,6.0,-999.0,93,-99.99,,,-99.99,,2013-01-13 19:33:00,
2013-01-13 14:43:00,46.0,45.0,30.04,North,-99,6.0,-999.0,93,-99.99,,,-99.99,,2013-01-13 19:43:00,
2013-01-13 14:52:00,46.0,45.0,30.03,North,-99,6.0,-999.0,93,-99.99,,,-99.99,,2013-01-13 19:52:00,
2013-01-13 15:03:00,46.0,45.0,30.03,North,-99,6.0,-999.0,93,-99.99,,,-99.99,,2013-01-13 20:03:00,
2013-01-13 15:12:00,46.0,45.0,30.05,North,0,0.0,-999.0,93,-99.99,,,-99.99,,2013-01-13 20:12:00,
2013-01-13 15:22:00,46.0,45.0,30.05,North,0,0.0,-999.0,93,-99.99,,,-99.99,,2013-01-13 20:22:00,
2013-01-13 15:33:00,46.0,45.0,30.04,North,-99,5.0,-999.0,93,-99.99,,,-99.99,,2013-01-13 20:33:00,
2013-01-13 15:43:00,46.0,45.0,30.04,North,-99,5.0,-999.0,93,-99.99,,,-99.99,,2013-01-13 20:43:00,
2013-01-13 15:53:00,46.0,45.0,30.04,North,0,0.0,-999.0,93,-99.99,,,-99.99,,2013-01-13 20:53:00,
2013-01-13 16:03:00,46.0,45.0,30.04,North,0,0.0,-999.0,93,-99.99,,,-99.99,,2013-01-13 21:03:00,
2013-01-13 16:12:00,46.0,45.0,30.04,North,0,0.0,-999.0,93,-99.99,,,-99.99,,2013-01-13 21:12:00,
2013-01-13 16:23:00,46.0,45.0,30.04,North,0,0.0,-999.0,93,-99.99,,,-99.99,,2013-01-13 21:23:00,
2013-01-13 16:33:00,46.0,45.0,30.03,North,-99,5.0,-999.0,93,-99.99,,,-99.99,,2013-01-13 21:33:00,
2013-01-13 16:43:00,46.0,45.0,30.03,North,-99,5.0,-999.0,93,-99.99,,,-99.99,,2013-01-13 21:43:00,
2013-01-13 16:52:00,48.0,46.0,30.03,North,0,0.0,-999.0,93,-99.99,,,-99.99,,2013-01-13 21:52:00,
2013-01-13 17:03:00,48.0,46.0,30.03,North,0,0.0,-999.0,93,-99.99,,,-99.99,,2013-01-13 22:03:00,
2013-01-13 17:13:00,48.0,46.0,30.02,North,0,0.0,-999.0,93,-99.99,,,-99.99,,2013-01-13 22:13:00,
2013-01-13 17:23:00,48.0,46.0,30.02,North,0,0.0,-999.0,93,-99.99,,,-99.99,,2013-01-13 22:23:00,
2013-01-13 17:33:00,48.0,46.0,30.03,North,0,0.0,-999.0,93,-99.99,,,-99.99,,2013-01-13 22:33:00,
2013-01-13 17:43:00,48.0,46.0,30.03,North,0,0.0,-999.0,93,-99.99,,,-99.99,,2013-01-13 22:43:00,
2013-01-13 17:52:00,48.0,46.0,30.03,North,0,0.0,-999.0,93,-99.99,,,-99.99,,2013-01-13 22:52:00,
2013-01-13 18:02:00,48.0,46.0,30.03,North,0,0.0,-999.0,93,-99.99,,,-99.99,,2013-01-13 23:02:00,
2013-01-13 18:12:00,48.0,46.0,30.03,North,0,0.0,-999.0,93,-99.99,,,-99.99,,2013-01-13 23:12:00,
2013-01-13 18:23:00,48.0,46.0,30.03,North,0,0.0,-999.0,93,-99.99,,,-99.99,,2013-01-13 23:23:00,
2013-01-13 18:33:00,48.0,46.0,30.03,North,0,0.0,-999.0,93,-99.99,,,-99.99,,2013-01-13 23:33:00,
2013-01-13 18:43:00,48.0,46.0,30.03,North,0,0.0,-999.0,93,-99.99,,,-99.99,,2013-01-13 23:43:00,
2013-01-13 18:52:00,48.0,46.0,30.03,North,0,0.0,-999.0,93,-99.99,,,-99.99,,2013-01-13 23:52:00,
2013-01-13 19:03:00,48.0,46.0,30.03,North,0,0.0,-999.0,93,-99.99,,,-99.99,,2013-01-14 00:03:00,
2013-01-13 19:13:00,48.0,46.0,30.02,North,0,0.0,-999.0,93,-99.99,,,-99.99,,2013-01-14 00:13:00,
2013-01-13 19:23:00,48.0,46.0,30.02,North,0,0.0,-999.0,93,-99.99,,,-99.99,,2013-01-14 00:23:00,
2013-01-13 19:33:00,48.0,46.0,30.02,North,0,0.0,-999.0,93,-99.99,,,-99.99,,2013-01-14 00:33:00,
2013-01-13 19:43:00,48.0,46.0,30.02,North,0,0.0,-999.0,93,-99.99,,,-99.99,,2013-01-14 00:43:00,
2013-01-13 19:52:00,48.0,46.0,30.02,North,0,0.0,-999.0,93,-99.99,,,-99.99,,2013-01-14 00:52:00,
2013-01-13 20:03:00,48.0,46.0,30.02,North,0,0.0,-999.0,93,-99.99,,,-99.99,,2013-01-14 01:03:00,
2013-01-13 20:12:00,48.0,46.0,30.00,North,-99,5.0,-999.0,93,-99.99,,,-99.99,,2013-01-14 01:12:00,
2013-01-13 20:22:00,48.0,46.0,30.00,North,-99,5.0,-999.0,93,-99.99,,,-99.99,,2013-01-14 01:22:00,
2013-01-13 20:33:00,48.0,46.0,30.00,North,0,0.0,-999.0,93,-99.99,,,-99.99,,2013-01-14 01:33:00,
2013-01-13 20:42:00,48.0,46.0,30.00,North,0,0.0,-999.0,93,-99.99,,,-99.99,,2013-01-14 01:42:00,
2013-01-13 20:52:00,48.0,46.0,30.00,North,0,0.0,-999.0,93,-99.99,,,-99.99,,2013-01-14 01:52:00,
2013-01-13 21:03:00,48.0,46.0,30.00,North,0,0.0,-999.0,93,-99.99,,,-99.99,,2013-01-14 02:03:00,
2013-01-13 21:12:00,48.0,46.0,29.99,North,0,0.0,-999.0,93,-99.99,,,-99.99,,2013-01-14 02:12:00,
2013-01-13 21:22:00,48.0,46.0,29.99,North,0,0.0,-999.0,93,-99.99,,,-99.99,,2013-01-14 02:22:00,
2013-01-13 21:33:00,48.0,46.0,29.99,North,0,0.0,-999.0,93,-99.99,,,-99.99,,2013-01-14 02:33:00,
2013-01-13 21:42:00,48.0,46.0,29.99,North,0,0.0,-999.0,93,-99.99,,,-99.99,,2013-01-14 02:42:00,
2013-01-13 21:53:00,48.0,46.0,29.98,North,0,0.0,-999.0,93,-99.99,,,-99.99,,2013-01-14 02:53:00,
2013-01-13 22:03:00,48.0,46.0,29.98,North,0,0.0,-999.0,93,-99.99,,,-99.99,,2013-01-14 03:03:00,
2013-01-13 22:12:00,48.0,46.0,29.98,North,0,0.0,-999.0,93,-99.99,,,-99.99,,2013-01-14 03:12:00,
2013-01-13 22:22:00,48.0,46.0,29.98,North,0,0.0,-999.0,93,-99.99,,,-99.99,,2013-01-14 03:22:00,
2013-01-13 22:33:00,48.0,46.0,29.98,North,0,0.0,-999.0,93,-99.99,,,-99.99,,2013-01-14 03:33:00,
2013-01-13 22:43:00,48.0,46.0,29.98,North,0,0.0,-999.0,93,-99.99,,,-99.99,,2013-01-14 03:43:00,
2013-01-13 22:53:00,48.0,46.0,29.98,North,0,0.0,-999.0,93,-99.99,,,-99.99,,2013-01-14 03:53:00,
2013-01-13 23:03:00,48.0,46.0,29.98,North,0,0.0,-999.0,93,-99.99,,,-99.99,,2013-01-14 04:03:00,
2013-01-13 23:12:00,48.0,46.0,29.98,North,0,0.0,-999.0,93,-99.99,,,-99.99,,2013-01-14 04:12:00,
2013-01-13 23:22:00,48.0,46.0,29.98,North,0,0.0,-999.0,93,-99.99,,,-99.99,,2013-01-14 04:22:00,
2013-01-13 23:32:00,48.0,46.0,29.98,North,0,0.0,-999.0,93,-99.99,,,-99.99,,2013-01-14 04:32:00,
2013-01-13 23:42:00,48.0,46.0,29.98,North,0,0.0,-999.0,93,-99.99,,,-99.99,,2013-01-14 04:42:00,
2013-01-13 23:52:00,48.0,46.0,29.98,North,0,0.0,-999.0,93,-99.99,,,-99.99,,2013-01-14 04:52:00,